Madison, SD

12:13 PM CST on December 03, 2016 (GMT -0600)
Madison Municipal

Weather History for KMDS - October, 2013

Change the Weather History Date:

Sunday, October 27, 2013

  Actual Average Record
Temperature  
Mean Temperature 44 °F -  
Max Temperature 59 °F 57 °F 62 °F (2016)
Min Temperature 28 °F 33 °F 23 °F (2011)
Degree Days  
Heating Degree Days 22    
Moisture  
Dew Point 30 °F    
Average Humidity 71    
Maximum Humidity 100    
Minimum Humidity 36    
Precipitation  
Precipitation 0.00 in - - ()
Sea Level Pressure  
Sea Level Pressure 29.91 in    
Wind  
Wind Speed 10 mph (South)    
Max Wind Speed 22 mph    
Max Gust Speed 29 mph    
Visibility 10 miles    
Events      
Averages and records for this station are not official NWS values.
T = Trace of Precipitation, MM = Missing Value Source: NWS Daily Summary

Daily Weather History Graph

Daily Weather History Graph

Search for Another Location

Airport or City:

Trip Planner

Search our weather history database for the weather conditions in past years. The results will help you decide how hot, cold, wet, or windy it might be!

Date:

Astronomy

Oct. 27, 2013 Rise Set
Actual Time 7:58 AM CDT 6:25 PM CDT
Civil Twilight 7:28 AM CDT 6:54 PM CDT
Nautical Twilight 6:54 AM CDT 7:28 PM CDT
Astronomical Twilight 6:21 AM CDT 8:02 PM CDT
Moon 12:43 AM CDT (10/27) 2:47 PM CDT (10/27)
Length of Visible Light 11h 25m
Length of Day
10h 26m
Last Quarter, 43% of the Moon is Illuminated
Oct 27
Last Quarter
Nov 3
New
Nov 9
First Quarter
Nov 17
Full
Nov 25
Last Quarter

Hourly Weather History & Observations

Time (CDT) Temp. Windchill Dew Point Humidity Pressure Visibility Wind Dir Wind Speed Gust Speed Precip Events Conditions
12:10 AM 28.4 °F 22.2 °F 28.4 °F 100% 30.04 in 10.0 mi SSW 5.8 mph - N/A   Clear
12:30 AM 28.4 °F 22.2 °F 28.4 °F 100% 30.02 in 10.0 mi SSW 5.8 mph - N/A   Clear
12:50 AM 28.4 °F 21.2 °F 26.6 °F 93% 30.01 in 10.0 mi SSW 6.9 mph - N/A   Clear
1:10 AM 28.4 °F 19.7 °F 28.4 °F 100% 30.01 in 10.0 mi SSW 9.2 mph - N/A   Clear
1:30 AM 30.2 °F 21.3 °F 28.4 °F 93% 30.00 in 10.0 mi SSW 10.4 mph - N/A   Clear
1:50 AM 30.2 °F 22.6 °F 28.4 °F 93% 29.99 in 10.0 mi SSW 8.1 mph - N/A   Clear
2:10 AM 28.4 °F 21.2 °F 28.4 °F 100% 29.98 in 10.0 mi SSW 6.9 mph - N/A   Clear
2:30 AM 30.2 °F 21.9 °F 28.4 °F 93% 29.97 in 10.0 mi SSW 9.2 mph - N/A   Clear
2:50 AM 28.4 °F 19.1 °F 28.4 °F 100% 29.96 in 10.0 mi South 10.4 mph - N/A   Clear
3:10 AM 28.4 °F 19.7 °F 28.4 °F 100% 29.95 in 10.0 mi SSW 9.2 mph - N/A   Clear
3:30 AM 28.4 °F 20.4 °F 28.4 °F 100% 29.94 in 10.0 mi SSW 8.1 mph - N/A   Clear
3:50 AM 32.0 °F 23.6 °F 28.4 °F 87% 29.93 in 10.0 mi SSW 10.4 mph - N/A   Clear
4:10 AM 33.8 °F 25.3 °F 28.4 °F 81% 29.91 in 10.0 mi SSW 11.5 mph - N/A   Clear
4:30 AM 33.8 °F 25.8 °F 28.4 °F 81% 29.90 in 10.0 mi SSW 10.4 mph - N/A   Clear
4:50 AM 35.6 °F 28.0 °F 28.4 °F 75% 29.89 in 10.0 mi SSW 10.4 mph - N/A   Clear
5:10 AM 35.6 °F 28.0 °F 28.4 °F 75% 29.88 in 10.0 mi SSW 10.4 mph - N/A   Clear
5:30 AM 35.6 °F 27.5 °F 28.4 °F 75% 29.87 in 10.0 mi SSW 11.5 mph - N/A   Clear
5:50 AM 35.6 °F 28.0 °F 28.4 °F 75% 29.87 in 10.0 mi SSW 10.4 mph - N/A   Clear
6:10 AM 35.6 °F 28.6 °F 26.6 °F 70% 29.86 in 10.0 mi SSW 9.2 mph - N/A   Clear
6:30 AM 32.0 °F 24.2 °F 26.6 °F 80% 29.86 in 10.0 mi South 9.2 mph - N/A   Clear
6:50 AM 32.0 °F 22.1 °F 28.4 °F 87% 29.84 in 10.0 mi South 13.8 mph - N/A   Clear
7:10 AM 32.0 °F 22.1 °F 28.4 °F 87% 29.84 in 10.0 mi South 13.8 mph - N/A   Clear
7:30 AM 32.0 °F 23.0 °F 28.4 °F 87% 29.82 in 10.0 mi South 11.5 mph - N/A   Clear
7:50 AM 32.0 °F 24.8 °F 28.4 °F 87% 29.82 in 10.0 mi South 8.1 mph - N/A   Clear
8:10 AM 30.2 °F 23.4 °F 28.4 °F 93% 29.82 in 10.0 mi South 6.9 mph - N/A   Clear
8:30 AM 28.4 °F 21.2 °F 28.4 °F 100% 29.82 in 10.0 mi South 6.9 mph - N/A   Clear
8:50 AM 30.2 °F 23.4 °F 30.2 °F 100% 29.83 in 10.0 mi South 6.9 mph - N/A   Clear
9:10 AM 32.0 °F 27.5 °F 32.0 °F 100% 29.83 in 10.0 mi South 4.6 mph - N/A   Clear
9:30 AM 33.8 °F 27.7 °F 32.0 °F 93% 29.83 in 10.0 mi South 6.9 mph - N/A   Clear
9:50 AM 35.6 °F 30.7 °F 32.0 °F 87% 29.82 in 10.0 mi SSW 5.8 mph - N/A   Clear
10:10 AM 39.2 °F 34.2 °F 32.0 °F 75% 29.82 in 10.0 mi SSW 6.9 mph - N/A   Clear
10:30 AM 42.8 °F 36.2 °F 32.0 °F 66% 29.82 in 10.0 mi SW 12.7 mph - N/A   Clear
10:50 AM 44.6 °F 39.7 °F 32.0 °F 61% 29.82 in 10.0 mi SW 9.2 mph - N/A   Clear
11:10 AM 46.4 °F 42.9 °F 32.0 °F 57% 29.82 in 10.0 mi SW 6.9 mph - N/A   Clear
11:30 AM 46.4 °F 42.9 °F 32.0 °F 57% 29.82 in 10.0 mi West 6.9 mph - N/A   Clear
11:50 AM 48.2 °F - 32.0 °F 54% 29.83 in 10.0 mi West 5.8 mph - N/A   Clear
12:10 PM 50.0 °F - 32.0 °F 50% 29.83 in 10.0 mi WNW 6.9 mph - N/A   Clear
12:30 PM 51.8 °F - 32.0 °F 47% 29.83 in 10.0 mi NNW 4.6 mph - N/A   Clear
12:50 PM 53.6 °F - 32.0 °F 44% 29.83 in 10.0 mi North 4.6 mph - N/A   Clear
1:10 PM 53.6 °F - 32.0 °F 44% 29.82 in 10.0 mi NNW 8.1 mph - N/A   Clear
1:30 PM 55.4 °F - 32.0 °F 41% 29.82 in 10.0 mi NW 6.9 mph - N/A   Clear
1:50 PM 57.2 °F - 32.0 °F 38% 29.82 in 10.0 mi NW 8.1 mph - N/A   Clear
2:10 PM 57.2 °F - 32.0 °F 38% 29.82 in 10.0 mi North 9.2 mph - N/A   Clear
2:30 PM 57.2 °F - 32.0 °F 38% 29.82 in 8.0 mi North 11.5 mph - N/A   Clear
2:50 PM 57.2 °F - 32.0 °F 38% 29.83 in 10.0 mi NNE 12.7 mph - N/A   Clear
3:10 PM 59.0 °F - 32.0 °F 36% 29.82 in 10.0 mi NNE 13.8 mph 18.4 mph N/A   Clear
3:30 PM 57.2 °F - 32.0 °F 38% 29.83 in 10.0 mi NNE 15.0 mph - N/A   Clear
3:50 PM 55.4 °F - 32.0 °F 41% 29.84 in 10.0 mi NNE 16.1 mph - N/A   Clear
4:10 PM 57.2 °F - 32.0 °F 38% 29.85 in 10.0 mi NE 13.8 mph 23.0 mph N/A   Clear
4:30 PM 57.2 °F - 32.0 °F 38% 29.86 in 10.0 mi NNE 17.3 mph 20.7 mph N/A   Clear
4:50 PM 55.4 °F - 32.0 °F 41% 29.87 in 10.0 mi NE 17.3 mph 24.2 mph N/A   Clear
5:10 PM 53.6 °F - 32.0 °F 44% 29.89 in 10.0 mi NE 18.4 mph 26.5 mph N/A   Clear
5:30 PM 50.0 °F - 32.0 °F 50% 29.90 in 10.0 mi NNE 19.6 mph 24.2 mph N/A   Clear
5:50 PM 50.0 °F - 32.0 °F 50% 29.91 in 10.0 mi NE 17.3 mph 21.9 mph N/A   Clear
6:10 PM 48.2 °F - 32.0 °F 54% 29.93 in 10.0 mi NE 16.1 mph - N/A   Clear
6:30 PM 46.4 °F 39.8 °F 32.0 °F 57% 29.94 in 10.0 mi NE 16.1 mph - N/A   Clear
6:50 PM 44.6 °F 37.4 °F 32.0 °F 61% 29.95 in 10.0 mi NE 16.1 mph - N/A   Clear
7:10 PM 44.6 °F 36.6 °F 32.0 °F 61% 29.96 in 10.0 mi NE 19.6 mph 26.5 mph N/A   Clear
7:30 PM 42.8 °F 33.8 °F 32.0 °F 66% 29.98 in 10.0 mi NNE 21.9 mph 28.8 mph N/A   Clear
7:50 PM 41.0 °F 31.9 °F 32.0 °F 70% 29.99 in 10.0 mi NNE 19.6 mph 28.8 mph N/A   Clear
8:10 PM 39.2 °F 30.5 °F 32.0 °F 75% 30.01 in 10.0 mi NNE 16.1 mph 23.0 mph N/A   Clear
8:30 PM 39.2 °F 30.5 °F 32.0 °F 75% 30.02 in 10.0 mi NE 16.1 mph - N/A   Clear
8:50 PM 37.4 °F 27.5 °F 32.0 °F 81% 30.02 in 10.0 mi NE 18.4 mph - N/A   Clear
9:10 PM 37.4 °F 27.8 °F 30.2 °F 75% 30.03 in 10.0 mi NE 17.3 mph 20.7 mph N/A   Clear
9:30 PM 37.4 °F 28.2 °F 30.2 °F 75% 30.04 in 10.0 mi NNE 16.1 mph 21.9 mph N/A   Clear
9:50 PM 37.4 °F 28.9 °F 30.2 °F 75% 30.05 in 10.0 mi NE 13.8 mph 21.9 mph N/A   Clear
10:10 PM 37.4 °F 28.5 °F 28.4 °F 70% 30.06 in 10.0 mi NE 15.0 mph - N/A   Clear
10:30 PM 35.6 °F 25.9 °F 28.4 °F 75% 30.07 in 10.0 mi NE 16.1 mph 24.2 mph N/A   Clear
10:50 PM 35.6 °F 26.6 °F 28.4 °F 75% 30.09 in 10.0 mi NE 13.8 mph - N/A   Clear
11:10 PM 35.6 °F 27.1 °F 28.4 °F 75% 30.10 in 10.0 mi NE 12.7 mph - N/A   Clear
11:30 PM 35.6 °F 26.2 °F 28.4 °F 75% 30.10 in 10.0 mi NE 15.0 mph - N/A   Clear
11:50 PM 35.6 °F 26.2 °F 30.2 °F 81% 30.11 in 10.0 mi NE 15.0 mph 20.7 mph N/A   Clear